This is the latest recevied weather packets stored in our database for station/object KR4KUV. If no packets are shown the sender has not sent any weather packets the latest 10 day(s).
| Time | Temp. | Humidity | Pressure | Rain* | Wind** | Luminosity | Snow |
|---|---|---|---|---|---|---|---|
| 1788018179 | 25.56° C | 88% | 1024.2 hPa | 0 mm | - | 565 W/m² | - |
| 1788017875 | 25° C | 90% | 1024 hPa | 0 mm | - | 542 W/m² | - |
| 1788017571 | 23.89° C | 92% | 1024 hPa | 0 mm | - | 525 W/m² | - |
| 1788017268 | 23.33° C | 96% | 1024.2 hPa | 0 mm | - | 165 W/m² | - |
| 1788016963 | 23.33° C | 98% | 1023.9 hPa | 0 mm | - | 133 W/m² | - |
| 1788016662 | 23.33° C | 99% | 1024.3 hPa | 0 mm | - | 188 W/m² | - |
| 1788016360 | 22.78° C | 99% | 1024 hPa | 0 mm | - | 382 W/m² | - |
| 1788016055 | 22.78° C | 99% | 1024.3 hPa | 0 mm | - | 404 W/m² | - |
| 1788015754 | 22.78° C | 99% | 1024.4 hPa | 0 mm | - | 174 W/m² | - |
| 1788015449 | 22.22° C | 99% | 1024.3 hPa | 0 mm | - | 197 W/m² | - |
| 1788015144 | 22.22° C | 99% | 1024.3 hPa | 0 mm | - | 211 W/m² | - |
| 1788014843 | 22.22° C | 99% | 1024.6 hPa | 0 mm | - | 182 W/m² | - |
| 1788014538 | 22.22° C | 99% | 1024 hPa | 0 mm | - | 152 W/m² | - |
| 1788014233 | 22.22° C | 99% | 1024 hPa | 0 mm | - | 164 W/m² | - |
| 1788013933 | 22.22° C | 99% | 1024 hPa | 0 mm | - | 164 W/m² | - |
| 1788013627 | 21.67° C | 99% | 1024 hPa | 0 mm | - | 218 W/m² | - |
| 1788013321 | 21.67° C | 99% | 1023.9 hPa | 0 mm | - | 142 W/m² | - |
| 1788013015 | 21.67° C | 99% | 1023.9 hPa | 0 mm | - | 107 W/m² | - |
| 1788012709 | 21.67° C | 99% | 1024 hPa | 0 mm | - | 106 W/m² | - |
| 1788012405 | 21.11° C | 99% | 1024.2 hPa | 0 mm | - | 93 W/m² | - |
| 1788012104 | 21.67° C | 99% | 1024 hPa | 0 mm | - | 261 W/m² | - |
| 1788011799 | 21.11° C | 99% | 1024 hPa | 0 mm | - | 91 W/m² | - |
| 1788011498 | 21.11° C | 99% | 1023.9 hPa | 0 mm | - | 79 W/m² | - |
| 1788011193 | 21.11° C | 99% | 1023.9 hPa | 0 mm | - | 77 W/m² | - |
| 1788010887 | 21.11° C | 99% | 1024.3 hPa | 0 mm | - | 81 W/m² | - |
* Rain latest hour (hover to see other rain measurements)
** Current wind speed in m/s (hover to see current wind gust speed)